Location: Grandview
(34.8900°N, 117.1058°W)
Time: 16:40:03
(UTC-08:00)

Hubble Space Telescope - Pass Details

Date: 10 October 2017
Orbit: 537 x 541 km, 28.5° (Epoch: 16 December)

Event Time Altitude Azimuth Distance (km) Brightness Sun altitude
Exits shadow 05:19:27 21° 196° (SSW) 1,242 2.4 -19.4°
Maximum altitude 05:19:28 21° 196° (SSW) 1,242 2.4 -19.4°
Drops below altitude 10° 05:22:36 10° 146° (SSE) 1,784 3.8 -18.8°
Sets 05:25:16 0° 130° (SE) 2,674 5.0 -18.3°
